When you browse on this site, cookies collect data to enhance your experience and personalize the content and advertising you see.
Visit our Privacy Policy to learn more. By continuing to use the site, you agree to this use of cookies and data.
  • In Österreich
  • Länderverzeichnis
  • Für 7 Tage
  • Wassertemperatur
  • Wetterkarte
  • News
  • Widgets
  • user-avatar
    Anmelden

    Stündliche Wetter Paratebueno

    Heute, 17 September, Dienstag

    Zeit Temperatur Niederschläge Wind Luftdruck Luftfeuchtigkeit
    00:00 +25°C° 0.3 mm 1 m/S 737 mmHg 91%
    01:00 +25°C° 0.3 mm 1 m/S 737 mmHg 91%
    02:00 +24°C° 0 mm 1 m/S 737 mmHg 90%
    03:00 +24°C° 0 mm 1 m/S 737 mmHg 89%
    04:00 +24°C° 0 mm 1 m/S 736 mmHg 88%
    05:00 +25°C° 0 mm 1 m/S 737 mmHg 86%
    06:00 +23°C° 0 mm 0 m/S 737 mmHg 84%
    07:00 +24°C° 0 mm 0 m/S 738 mmHg 83%
    08:00 +26°C° 0.1 mm 0 m/S 738 mmHg 77%
    09:00 +30°C° 0.1 mm 1 m/S 738 mmHg 71%
    10:00 +33°C° 0.1 mm 1 m/S 738 mmHg 66%
    11:00 +33°C° 0.8 mm 1 m/S 737 mmHg 67%
    12:00 +33°C° 0.8 mm 1 m/S 737 mmHg 69%
    13:00 +33°C° 0.8 mm 1 m/S 736 mmHg 71%
    14:00 +31°C° 2.4 mm 1 m/S 736 mmHg 77%
    15:00 +30°C° 2.4 mm 1 m/S 735 mmHg 83%
    16:00 +28°C° 2.4 mm 1 m/S 735 mmHg 89%
    17:00 +27°C° 1 mm 2 m/S 736 mmHg 91%
    18:00 +26°C° 1 mm 2 m/S 736 mmHg 94%
    19:00 +25°C° 1 mm 2 m/S 736 mmHg 96%
    20:00 +25°C° 0.1 mm 2 m/S 737 mmHg 95%
    21:00 +25°C° 0.1 mm 1 m/S 737 mmHg 95%
    22:00 +25°C° 0.1 mm 1 m/S 737 mmHg 94%
    23:00 +25°C° 0 mm 1 m/S 737 mmHg 93%

    Morgen, 18 September, Mittwoch

    Zeit Temperatur Niederschläge Wind Luftdruck Luftfeuchtigkeit
    00:00 +25°C° 0 mm 1 m/S 737 mmHg 91%
    01:00 +25°C° 0 mm 1 m/S 736 mmHg 90%
    02:00 +25°C° 0.1 mm 1 m/S 736 mmHg 89%
    03:00 +25°C° 0.1 mm 1 m/S 736 mmHg 89%
    04:00 +25°C° 0.1 mm 1 m/S 736 mmHg 88%
    05:00 +25°C° 0 mm 1 m/S 736 mmHg 87%
    06:00 +26°C° 0 mm 1 m/S 737 mmHg 87%
    07:00 +26°C° 0 mm 1 m/S 737 mmHg 86%
    08:00 +28°C° 0 mm 1 m/S 737 mmHg 79%
    09:00 +30°C° 0 mm 1 m/S 737 mmHg 72%
    10:00 +32°C° 0 mm 1 m/S 737 mmHg 66%
    11:00 +33°C° 0.1 mm 1 m/S 737 mmHg 64%
    12:00 +34°C° 0.1 mm 1 m/S 736 mmHg 63%
    13:00 +34°C° 0.1 mm 1 m/S 735 mmHg 61%
    14:00 +33°C° 1 mm 1 m/S 734 mmHg 67%
    15:00 +32°C° 1 mm 1 m/S 734 mmHg 73%
    16:00 +30°C° 1 mm 0 m/S 733 mmHg 79%
    17:00 +30°C° 0.7 mm 1 m/S 734 mmHg 83%
    18:00 +28°C° 0.7 mm 1 m/S 734 mmHg 87%
    19:00 +27°C° 0.7 mm 1 m/S 734 mmHg 90%
    20:00 +26°C° 0.7 mm 1 m/S 735 mmHg 91%
    21:00 +26°C° 0.7 mm 1 m/S 735 mmHg 92%
    22:00 +25°C° 0.7 mm 1 m/S 736 mmHg 92%
    23:00 +25°C° 1 mm 1 m/S 735 mmHg 92%

    übermorgen, 19 September, Donnerstag

    Zeit Temperatur Niederschläge Wind Luftdruck Luftfeuchtigkeit
    00:00 +25°C° 1 mm 1 m/S 735 mmHg 92%
    01:00 +24°C° 1 mm 1 m/S 735 mmHg 91%
    02:00 +24°C° 1 mm 1 m/S 735 mmHg 91%
    03:00 +24°C° 1 mm 1 m/S 735 mmHg 91%
    04:00 +24°C° 1 mm 1 m/S 735 mmHg 91%
    05:00 +24°C° 1.1 mm 1 m/S 736 mmHg 91%
    06:00 +25°C° 1.1 mm 1 m/S 736 mmHg 91%
    07:00 +23°C° 1.1 mm 0 m/S 736 mmHg 91%
    08:00 +27°C° 0.5 mm 1 m/S 737 mmHg 86%
    09:00 +29°C° 0.5 mm 1 m/S 737 mmHg 80%
    10:00 +31°C° 0.5 mm 1 m/S 737 mmHg 74%
    11:00 +31°C° 0.7 mm 1 m/S 736 mmHg 74%
    12:00 +32°C° 0.7 mm 1 m/S 735 mmHg 74%
    13:00 +32°C° 0.7 mm 1 m/S 735 mmHg 74%
    14:00 +32°C° 0.7 mm 1 m/S 734 mmHg 75%
    15:00 +30°C° 0.7 mm 0 m/S 734 mmHg 75%
    16:00 +30°C° 0.7 mm 0 m/S 734 mmHg 76%
    17:00 +28°C° 0.8 mm 0 m/S 734 mmHg 80%
    18:00 +28°C° 0.8 mm 1 m/S 734 mmHg 85%
    19:00 +27°C° 0.8 mm 1 m/S 735 mmHg 89%
    20:00 +26°C° 2 mm 1 m/S 735 mmHg 91%
    21:00 +25°C° 2 mm 1 m/S 736 mmHg 93%
    22:00 +25°C° 2 mm 2 m/S 736 mmHg 95%
    23:00 +25°C° 0 mm 2 m/S 736 mmHg 93%

    20 September, Freitag

    Zeit Temperatur Niederschläge Wind Luftdruck Luftfeuchtigkeit
    00:00 +25°C° 0 mm 1 m/S 736 mmHg 92%
    01:00 +25°C° 0 mm 1 m/S 736 mmHg 90%
    02:00 +25°C° 0 mm 1 m/S 736 mmHg 89%
    03:00 +25°C° 0 mm 1 m/S 736 mmHg 88%
    04:00 +24°C° 0 mm 1 m/S 736 mmHg 87%
    05:00 +25°C° 0 mm 1 m/S 736 mmHg 87%
    06:00 +25°C° 0 mm 1 m/S 737 mmHg 87%
    07:00 +26°C° 0 mm 1 m/S 738 mmHg 87%
    08:00 +27°C° 0 mm 1 m/S 738 mmHg 84%
    09:00 +28°C° 0 mm 1 m/S 738 mmHg 80%
    10:00 +29°C° 0 mm 1 m/S 738 mmHg 77%
    11:00 +30°C° 0.7 mm 1 m/S 738 mmHg 75%
    12:00 +31°C° 0.7 mm 1 m/S 737 mmHg 73%
    13:00 +32°C° 0.7 mm 1 m/S 737 mmHg 70%
    14:00 +31°C° 1.2 mm 1 m/S 736 mmHg 77%
    15:00 +29°C° 1.2 mm 1 m/S 736 mmHg 84%
    16:00 +28°C° 1.2 mm 1 m/S 735 mmHg 91%
    17:00 +27°C° 0.3 mm 1 m/S 736 mmHg 91%
    18:00 +26°C° 0.3 mm 1 m/S 736 mmHg 92%
    19:00 +26°C° 0.3 mm 1 m/S 737 mmHg 93%
    20:00 +25°C° 0 mm 1 m/S 737 mmHg 92%
    21:00 +25°C° 0 mm 1 m/S 738 mmHg 91%
    22:00 +25°C° 0 mm 1 m/S 738 mmHg 90%
    23:00 +25°C° 0 mm 1 m/S 738 mmHg 89%

    21 September, Samstag

    Zeit Temperatur Niederschläge Wind Luftdruck Luftfeuchtigkeit
    00:00 +25°C° 0 mm 1 m/S 738 mmHg 88%
    01:00 +25°C° 0 mm 1 m/S 737 mmHg 87%
    02:00 +25°C° 0 mm 1 m/S 737 mmHg 87%
    03:00 +24°C° 0 mm 1 m/S 737 mmHg 86%
    04:00 +22°C° 0 mm 0 m/S 737 mmHg 86%
    05:00 +22°C° 0 mm 0 m/S 737 mmHg 85%
    06:00 +23°C° 0 mm 0 m/S 738 mmHg 84%
    07:00 +26°C° 0 mm 1 m/S 739 mmHg 82%
    08:00 +28°C° 0.1 mm 1 m/S 739 mmHg 77%
    09:00 +30°C° 0.1 mm 1 m/S 739 mmHg 72%
    10:00 +32°C° 0.1 mm 1 m/S 739 mmHg 66%
    11:00 +33°C° 0.2 mm 1 m/S 738 mmHg 64%
    12:00 +33°C° 0.2 mm 1 m/S 737 mmHg 62%
    13:00 +34°C° 0.2 mm 1 m/S 736 mmHg 60%
    14:00 +33°C° 1.4 mm 1 m/S 736 mmHg 67%
    15:00 +32°C° 1.4 mm 1 m/S 735 mmHg 74%
    16:00 +29°C° 1.4 mm 0 m/S 735 mmHg 81%
    17:00 +29°C° 0.8 mm 1 m/S 735 mmHg 84%
    18:00 +28°C° 0.8 mm 1 m/S 736 mmHg 86%
    19:00 +26°C° 0.8 mm 1 m/S 736 mmHg 89%
    20:00 +26°C° 0.1 mm 1 m/S 737 mmHg 89%
    21:00 +25°C° 0.1 mm 1 m/S 737 mmHg 89%
    22:00 +25°C° 0.1 mm 1 m/S 737 mmHg 89%
    23:00 +25°C° 0 mm 1 m/S 737 mmHg 88%

    22 September, Sonntag

    Zeit Temperatur Niederschläge Wind Luftdruck Luftfeuchtigkeit
    00:00 +25°C° 0 mm 1 m/S 737 mmHg 87%
    01:00 +25°C° 0 mm 1 m/S 737 mmHg 86%
    02:00 +24°C° 0 mm 1 m/S 737 mmHg 86%
    03:00 +24°C° 0 mm 1 m/S 737 mmHg 85%
    04:00 +22°C° 0 mm 0 m/S 737 mmHg 84%
    05:00 +22°C° 0 mm 0 m/S 737 mmHg 84%
    06:00 +23°C° 0 mm 0 m/S 738 mmHg 84%
    07:00 +24°C° 0 mm 0 m/S 739 mmHg 83%
    08:00 +26°C° 0 mm 0 m/S 739 mmHg 78%
    09:00 +28°C° 0 mm 0 m/S 739 mmHg 72%
    10:00 +32°C° 0 mm 1 m/S 739 mmHg 66%
    11:00 +32°C° 0 mm 1 m/S 738 mmHg 62%
    12:00 +33°C° 0 mm 1 m/S 737 mmHg 59%
    13:00 +34°C° 0 mm 1 m/S 737 mmHg 55%
    14:00 +34°C° 0 mm 1 m/S 736 mmHg 58%
    15:00 +33°C° 0 mm 1 m/S 736 mmHg 60%
    16:00 +33°C° 0 mm 1 m/S 735 mmHg 63%
    17:00 +31°C° 0 mm 1 m/S 736 mmHg 68%
    18:00 +29°C° 0 mm 1 m/S 736 mmHg 73%
    19:00 +27°C° 0 mm 1 m/S 737 mmHg 78%
    20:00 +27°C° 0.1 mm 1 m/S 737 mmHg 79%
    21:00 +26°C° 0.1 mm 1 m/S 738 mmHg 80%
    22:00 +26°C° 0.1 mm 1 m/S 738 mmHg 80%
    23:00 +25°C° 0 mm 1 m/S 738 mmHg 79%
    Mehr zeigen